Regional Weather Roundup
Issued by NWS

Home | Current Version | Previous Version | Text Only | Print | Product List | Glossary Off
Versions: 1 2 3 4 5 6 7 8 9 10 11 12 13 14 15 16 17 18 19 20 21 22 23 24 25 26 27 28 29 30 31 32 33 34 35 36 37 38 39 40 41 42 43 44 45 46 47 48 49 50

000
ASUS43 KLMK 011210
RWRKY
KENTUCKY REGIONAL WEATHER ROUNDUP
NATIONAL WEATHER SERVICE LOUISVILLE KY
800 AM EDT SAT AUG 01 2015

NOTE "FAIR" INDICATES FEW OR NO CLOUDS BELOW 12,000 FEET
WITH NO SIGNIFICANT WEATHER AND/OR OBSTRUCTIONS TO VISIBILITY.

KYZ001>023-026-027-061>063-070>075-011300-
WESTERN AND SOUTH CENTRAL KENTUCKY

CITY           SKY/WX    TMP DP  RH WIND       PRES   REMARKS
PADUCAH        SUNNY     70  68  93 CALM      30.02R
HENDERSON      SUNNY     72  66  83 CALM      30.01S
OWENSBORO      SUNNY     74  70  87 N7        30.02R
HOPKINSVILLE   SUNNY     70  68  93 SW3       30.03R
BOWLING GREEN  SUNNY     71  66  84 S3        30.03R
GLASGOW        SUNNY    N/A N/A N/A CALM      30.03R
$$

KYZ024-025-028>034-038-045-046-053-011300-
NORTH CENTRAL KENTUCKY

CITY           SKY/WX    TMP DP  RH WIND       PRES   REMARKS
LOUISVILLE/SDF MOSUNNY   73  66  78 SW5       30.00R
LOUISVILLE/LOU SUNNY     71  66  84 CALM      30.02R
FORT KNOX      SUNNY     69  67  93 W3        30.01R
$$

KYZ035>037-039>044-047>052-055>060-089>105-011300-
NORTHEAST KENTUCKY

CITY           SKY/WX    TMP DP  RH WIND       PRES   REMARKS
LEXINGTON      SUNNY     68  63  84 CALM      30.02R
COVINGTON      MOSUNNY   65  62  90 CALM      30.00R
FRANKFORT      SUNNY     67  62  84 CALM      30.01R
$$

KYZ054-064>069-076>088-106>120-011300-
SOUTHEAST KENTUCKY

CITY           SKY/WX    TMP DP  RH WIND       PRES   REMARKS
JACKSON        SUNNY     67  62  84 CALM      30.04R
LONDON         SUNNY     65  59  81 CALM      30.05R
SOMERSET       MOSUNNY   63  63 100 CALM      30.06R
MIDDLESBORO    FOG       60  60 100 CALM      30.08R VSB 1/2
MONTICELLO     SUNNY     65  65 100 CALM      30.08R
$$



USA.gov is the U.S. government's official web portal to all federal, state and local government web resources and services.